Location: Unspecified
(0.0000°N, 0.0000°E)
Time: 19:25:04
(UTC+00:00)

IRIDIUM 138 - Visible Passes

Search period start: 14 January 2025 00:00
Search period end: 24 January 2025 00:00
Orbit: 777 x 778 km, 86.4° (Epoch: 14 January)

Date Brightness Start Highest point End Pass type
(mag) Time Alt. Az. Time Alt. Az. Time Alt. Az.
14 Jan ? 03:58:07 10° SSE 04:03:15 57° E 04:04:31 45° NE visible
15 Jan ? 03:25:31 10° SE 03:29:48 26° E 03:29:53 26° E visible
15 Jan ? 05:06:49 10° SW 05:10:13 18° W 05:10:17 18° W visible
16 Jan ? 02:54:51 10° ESE 02:55:21 11° E 02:55:21 11° E visible
16 Jan ? 04:31:56 10° SSW 04:35:46 35° WSW 04:35:46 35° WSW visible
17 Jan ? 03:58:05 10° S 04:01:20 39° S 04:01:20 39° S visible
18 Jan ? 03:24:58 10° SSE 03:26:59 22° SSE 03:26:59 22° SSE visible
19 Jan ? 04:32:41 10° SW 04:33:07 12° SW 04:33:07 12° SW visible
20 Jan ? 03:58:19 10° SSW 03:58:55 13° SSW 03:58:55 13° SSW visible
21 Jan ? 03:24:44 10° S 03:24:45 10° S 03:24:45 10° S visible
